Time,TemperatureF,DewpointF,PressureIn,WindDirection,WindDirectionDegrees,WindSpeedMPH,WindSpeedGustMPH,Humidity,HourlyPrecipIn,Conditions,Clouds,dailyrainin,SoftwareType,DateUTC
2013-01-31 00:03:00,32.0,23.0,29.92,West,270,13.0,16.0,69,0.00,,,0.00,Rainwise IP-100,2013-01-31 06:03:00,
2013-01-31 00:08:00,32.0,23.0,29.92,SW,225,8.0,16.0,69,0.00,,,0.00,Rainwise IP-100,2013-01-31 06:08:00,
2013-01-31 00:13:00,32.0,24.0,29.92,NW,315,8.0,19.0,70,0.00,,,0.00,Rainwise IP-100,2013-01-31 06:13:00,
2013-01-31 00:18:00,32.0,24.0,29.93,WNW,292,15.0,18.0,70,0.00,,,0.00,Rainwise IP-100,2013-01-31 06:18:00,
2013-01-31 00:24:00,32.0,24.0,29.93,WSW,247,7.0,17.0,70,0.00,,,0.00,Rainwise IP-100,2013-01-31 06:24:00,
2013-01-31 00:29:00,32.0,24.0,29.94,West,270,6.0,15.0,71,0.00,,,0.00,Rainwise IP-100,2013-01-31 06:29:00,
2013-01-31 00:34:00,32.0,23.0,29.94,SW,225,12.0,14.0,69,0.00,,,0.00,Rainwise IP-100,2013-01-31 06:34:00,
2013-01-31 00:39:00,32.0,23.0,29.95,NNW,337,4.0,17.0,65,0.00,,,0.00,Rainwise IP-100,2013-01-31 06:39:00,
2013-01-31 00:44:00,32.0,23.0,29.95,West,270,7.0,24.0,64,0.00,,,0.00,Rainwise IP-100,2013-01-31 06:44:00,
2013-01-31 00:49:00,32.0,21.0,29.95,SW,225,9.0,19.0,63,0.00,,,0.00,Rainwise IP-100,2013-01-31 06:49:00,
2013-01-31 00:54:00,32.0,21.0,29.95,SSE,157,5.0,20.0,63,0.00,,,0.00,Rainwise IP-100,2013-01-31 06:54:00,
2013-01-31 01:00:00,32.0,21.0,29.94,West,270,7.0,25.0,63,0.00,,,0.00,Rainwise IP-100,2013-01-31 07:00:00,
2013-01-31 01:05:00,32.0,23.0,29.94,North,360,1.0,21.0,65,0.00,,,0.00,Rainwise IP-100,2013-01-31 07:05:00,
2013-01-31 01:10:00,32.0,23.0,29.94,West,270,9.0,13.0,65,0.00,,,0.00,Rainwise IP-100,2013-01-31 07:10:00,
2013-01-31 01:15:00,32.0,23.0,29.94,WSW,247,7.0,12.0,65,0.00,,,0.00,Rainwise IP-100,2013-01-31 07:15:00,
2013-01-31 01:20:00,32.0,23.0,29.93,NW,315,6.0,15.0,65,0.00,,,0.00,Rainwise IP-100,2013-01-31 07:20:00,
2013-01-31 01:25:00,32.0,23.0,29.93,NW,315,9.0,18.0,65,0.00,,,0.00,Rainwise IP-100,2013-01-31 07:25:00,
2013-01-31 01:30:00,32.0,23.0,29.93,South,180,3.0,17.0,66,0.00,,,0.00,Rainwise IP-100,2013-01-31 07:30:00,
2013-01-31 01:35:00,32.0,23.0,29.93,WSW,247,6.0,12.0,65,0.00,,,0.00,Rainwise IP-100,2013-01-31 07:35:00,
2013-01-31 01:40:00,32.0,23.0,29.94,SW,225,6.0,13.0,65,0.00,,,0.00,Rainwise IP-100,2013-01-31 07:40:00,
2013-01-31 01:46:00,32.0,23.0,29.94,SW,225,10.0,18.0,66,0.00,,,0.00,Rainwise IP-100,2013-01-31 07:46:00,
2013-01-31 01:51:00,32.0,23.0,29.94,SSW,202,7.0,17.0,66,0.00,,,0.00,Rainwise IP-100,2013-01-31 07:51:00,
2013-01-31 01:56:00,32.0,23.0,29.94,WSW,247,10.0,12.0,67,0.00,,,0.00,Rainwise IP-100,2013-01-31 07:56:00,
2013-01-31 02:01:00,32.0,23.0,29.94,NW,315,6.0,13.0,67,0.00,,,0.00,Rainwise IP-100,2013-01-31 08:01:00,
2013-01-31 02:06:00,32.0,23.0,29.94,WNW,292,9.0,9.0,68,0.00,,,0.00,Rainwise IP-100,2013-01-31 08:06:00,
2013-01-31 02:11:00,31.0,21.0,29.94,NW,315,6.0,13.0,67,0.00,,,0.00,Rainwise IP-100,2013-01-31 08:11:00,
2013-01-31 02:16:00,31.0,23.0,29.95,WNW,292,5.0,12.0,68,0.00,,,0.00,Rainwise IP-100,2013-01-31 08:16:00,
2013-01-31 02:22:00,31.0,23.0,29.95,NW,315,2.0,7.0,68,0.00,,,0.00,Rainwise IP-100,2013-01-31 08:22:00,
2013-01-31 02:27:00,31.0,23.0,29.94,NNE,22,6.0,13.0,70,0.00,,,0.00,Rainwise IP-100,2013-01-31 08:27:00,
2013-01-31 02:32:00,31.0,23.0,29.94,NW,315,7.0,9.0,68,0.00,,,0.00,Rainwise IP-100,2013-01-31 08:32:00,
2013-01-31 02:37:00,31.0,23.0,29.95,NW,315,6.0,7.0,69,0.00,,,0.00,Rainwise IP-100,2013-01-31 08:37:00,
2013-01-31 02:42:00,31.0,23.0,29.95,West,270,7.0,10.0,68,0.00,,,0.00,Rainwise IP-100,2013-01-31 08:42:00,
2013-01-31 02:47:00,31.0,23.0,29.95,WSW,247,6.0,12.0,68,0.00,,,0.00,Rainwise IP-100,2013-01-31 08:47:00,
2013-01-31 02:52:00,31.0,23.0,29.95,West,270,4.0,11.0,68,0.00,,,0.00,Rainwise IP-100,2013-01-31 08:52:00,
2013-01-31 02:57:00,31.0,23.0,29.95,West,270,6.0,10.0,69,0.00,,,0.00,Rainwise IP-100,2013-01-31 08:57:00,
2013-01-31 03:03:00,31.0,23.0,29.95,North,360,7.0,9.0,70,0.00,,,0.00,Rainwise IP-100,2013-01-31 09:03:00,
2013-01-31 03:08:00,31.0,23.0,29.95,West,270,4.0,12.0,69,0.00,,,0.00,Rainwise IP-100,2013-01-31 09:08:00,
2013-01-31 03:13:00,30.0,23.0,29.95,SW,225,5.0,13.0,69,0.00,,,0.00,Rainwise IP-100,2013-01-31 09:13:00,
2013-01-31 03:18:00,30.0,23.0,29.95,WSW,247,7.0,15.0,69,0.00,,,0.00,Rainwise IP-100,2013-01-31 09:18:00,
2013-01-31 03:23:00,30.0,23.0,29.95,West,270,6.0,10.0,70,0.00,,,0.00,Rainwise IP-100,2013-01-31 09:23:00,
2013-01-31 03:28:00,30.0,23.0,29.96,WNW,292,6.0,11.0,69,0.00,,,0.00,Rainwise IP-100,2013-01-31 09:28:00,
2013-01-31 03:33:00,30.0,23.0,29.96,West,270,6.0,13.0,69,0.00,,,0.00,Rainwise IP-100,2013-01-31 09:33:00,
2013-01-31 03:38:00,30.0,23.0,29.96,WNW,292,8.0,13.0,69,0.00,,,0.00,Rainwise IP-100,2013-01-31 09:38:00,
2013-01-31 03:44:00,30.0,23.0,29.96,West,270,6.0,13.0,70,0.00,,,0.00,Rainwise IP-100,2013-01-31 09:44:00,
2013-01-31 03:48:00,30.0,23.0,29.97,WNW,292,8.0,15.0,68,0.00,,,0.00,Rainwise IP-100,2013-01-31 09:48:00,
2013-01-31 03:54:00,30.0,23.0,29.97,South,180,2.0,10.0,70,0.00,,,0.00,Rainwise IP-100,2013-01-31 09:54:00,
2013-01-31 03:59:00,30.0,23.0,29.97,NW,315,3.0,6.0,70,0.00,,,0.00,Rainwise IP-100,2013-01-31 09:59:00,
2013-01-31 04:04:00,30.0,21.0,29.97,WNW,292,9.0,13.0,67,0.00,,,0.00,Rainwise IP-100,2013-01-31 10:04:00,
2013-01-31 04:09:00,30.0,23.0,29.97,West,270,2.0,12.0,68,0.00,,,0.00,Rainwise IP-100,2013-01-31 10:09:00,
2013-01-31 04:14:00,30.0,21.0,29.97,NW,315,9.0,11.0,67,0.00,,,0.00,Rainwise IP-100,2013-01-31 10:14:00,
2013-01-31 04:19:00,30.0,21.0,29.97,WNW,292,7.0,16.0,65,0.00,,,0.00,Rainwise IP-100,2013-01-31 10:19:00,
2013-01-31 04:24:00,30.0,21.0,29.97,NW,315,4.0,12.0,67,0.00,,,0.00,Rainwise IP-100,2013-01-31 10:24:00,
2013-01-31 04:30:00,30.0,21.0,29.97,WNW,292,5.0,11.0,66,0.00,,,0.00,Rainwise IP-100,2013-01-31 10:30:00,
2013-01-31 04:35:00,30.0,21.0,29.97,WSW,247,2.0,10.0,66,0.00,,,0.00,Rainwise IP-100,2013-01-31 10:35:00,
2013-01-31 04:40:00,30.0,21.0,29.97,WNW,292,7.0,12.0,66,0.00,,,0.00,Rainwise IP-100,2013-01-31 10:40:00,
2013-01-31 04:45:00,30.0,21.0,29.97,WSW,247,3.0,15.0,66,0.00,,,0.00,Rainwise IP-100,2013-01-31 10:45:00,
2013-01-31 04:50:00,30.0,21.0,29.97,West,270,0.0,7.0,67,0.00,,,0.00,Rainwise IP-100,2013-01-31 10:50:00,
2013-01-31 04:55:00,30.0,21.0,29.97,WNW,292,2.0,9.0,67,0.00,,,0.00,Rainwise IP-100,2013-01-31 10:55:00,
2013-01-31 05:00:00,30.0,21.0,29.98,NNW,337,3.0,12.0,67,0.00,,,0.00,Rainwise IP-100,2013-01-31 11:00:00,
2013-01-31 05:05:00,30.0,21.0,29.98,SW,225,5.0,8.0,67,0.00,,,0.00,Rainwise IP-100,2013-01-31 11:05:00,
2013-01-31 05:10:00,30.0,21.0,29.99,West,270,1.0,11.0,67,0.00,,,0.00,Rainwise IP-100,2013-01-31 11:10:00,
2013-01-31 05:16:00,30.0,21.0,29.99,WSW,247,9.0,12.0,67,0.00,,,0.00,Rainwise IP-100,2013-01-31 11:16:00,
2013-01-31 05:21:00,30.0,21.0,29.99,West,270,3.0,12.0,67,0.00,,,0.00,Rainwise IP-100,2013-01-31 11:21:00,
2013-01-31 05:26:00,30.0,23.0,29.99,SSW,202,0.0,10.0,69,0.00,,,0.00,Rainwise IP-100,2013-01-31 11:26:00,
2013-01-31 05:31:00,30.0,23.0,29.99,SSW,202,0.0,1.0,70,0.00,,,0.00,Rainwise IP-100,2013-01-31 11:31:00,
2013-01-31 05:36:00,30.0,23.0,29.99,WSW,247,1.0,5.0,69,0.00,,,0.00,Rainwise IP-100,2013-01-31 11:36:00,
2013-01-31 05:41:00,30.0,23.0,30.00,West,270,5.0,6.0,70,0.00,,,0.00,Rainwise IP-100,2013-01-31 11:41:00,
2013-01-31 05:46:00,30.0,23.0,30.00,SW,225,6.0,9.0,68,0.00,,,0.00,Rainwise IP-100,2013-01-31 11:46:00,
2013-01-31 05:52:00,30.0,23.0,30.00,West,270,1.0,12.0,68,0.00,,,0.00,Rainwise IP-100,2013-01-31 11:52:00,
2013-01-31 05:57:00,30.0,23.0,30.00,WNW,292,6.0,7.0,69,0.00,,,0.00,Rainwise IP-100,2013-01-31 11:57:00,
2013-01-31 06:02:00,30.0,23.0,30.00,West,270,3.0,7.0,69,0.00,,,0.00,Rainwise IP-100,2013-01-31 12:02:00,
2013-01-31 06:07:00,30.0,23.0,30.00,NW,315,6.0,6.0,69,0.00,,,0.00,Rainwise IP-100,2013-01-31 12:07:00,
2013-01-31 06:12:00,30.0,23.0,30.00,SW,225,2.0,7.0,69,0.00,,,0.00,Rainwise IP-100,2013-01-31 12:12:00,
2013-01-31 06:17:00,30.0,23.0,30.01,WNW,292,0.0,8.0,70,0.00,,,0.00,Rainwise IP-100,2013-01-31 12:17:00,
2013-01-31 06:22:00,30.0,23.0,30.01,NW,315,0.0,6.0,71,0.00,,,0.00,Rainwise IP-100,2013-01-31 12:22:00,
2013-01-31 06:27:00,30.0,23.0,30.01,West,270,2.0,6.0,70,0.00,,,0.00,Rainwise IP-100,2013-01-31 12:27:00,
2013-01-31 06:33:00,30.0,23.0,30.01,West,270,1.0,8.0,70,0.00,,,0.00,Rainwise IP-100,2013-01-31 12:33:00,
2013-01-31 06:38:00,30.0,23.0,30.01,NW,315,0.0,6.0,71,0.00,,,0.00,Rainwise IP-100,2013-01-31 12:38:00,
2013-01-31 06:43:00,30.0,23.0,30.01,West,270,2.0,13.0,71,0.00,,,0.00,Rainwise IP-100,2013-01-31 12:43:00,
2013-01-31 06:48:00,30.0,23.0,30.02,WSW,247,2.0,7.0,71,0.00,,,0.00,Rainwise IP-100,2013-01-31 12:48:00,
2013-01-31 06:53:00,30.0,23.0,30.02,NW,315,3.0,9.0,71,0.00,,,0.00,Rainwise IP-100,2013-01-31 12:53:00,
2013-01-31 06:58:00,30.0,23.0,30.02,West,270,2.0,8.0,71,0.00,,,0.00,Rainwise IP-100,2013-01-31 12:58:00,
2013-01-31 07:03:00,29.0,21.0,30.01,WSW,247,4.0,5.0,71,0.00,,,0.00,Rainwise IP-100,2013-01-31 13:03:00,
2013-01-31 07:09:00,30.0,23.0,30.02,WSW,247,3.0,9.0,71,0.00,,,0.00,Rainwise IP-100,2013-01-31 13:09:00,
2013-01-31 07:14:00,30.0,23.0,30.02,West,270,2.0,8.0,72,0.00,,,0.00,Rainwise IP-100,2013-01-31 13:14:00,
2013-01-31 07:19:00,30.0,23.0,30.03,SW,225,3.0,7.0,72,0.00,,,0.00,Rainwise IP-100,2013-01-31 13:19:00,
2013-01-31 07:24:00,30.0,23.0,30.03,North,360,2.0,6.0,73,0.00,,,0.00,Rainwise IP-100,2013-01-31 13:24:00,
2013-01-31 07:29:00,30.0,23.0,30.03,West,270,6.0,10.0,72,0.00,,,0.00,Rainwise IP-100,2013-01-31 13:29:00,
2013-01-31 07:34:00,30.0,23.0,30.03,West,270,3.0,7.0,72,0.00,,,0.00,Rainwise IP-100,2013-01-31 13:34:00,
2013-01-31 07:39:00,30.0,23.0,30.05,WSW,247,3.0,8.0,72,0.00,,,0.00,Rainwise IP-100,2013-01-31 13:39:00,
2013-01-31 07:44:00,30.0,23.0,30.05,SSW,202,5.0,12.0,72,0.00,,,0.00,Rainwise IP-100,2013-01-31 13:44:00,
2013-01-31 07:50:00,30.0,23.0,30.05,SW,225,4.0,9.0,72,0.00,,,0.00,Rainwise IP-100,2013-01-31 13:50:00,
2013-01-31 07:55:00,30.0,23.0,30.05,SW,225,6.0,10.0,73,0.00,,,0.00,Rainwise IP-100,2013-01-31 13:55:00,
2013-01-31 08:00:00,30.0,23.0,30.05,SW,225,4.0,12.0,71,0.00,,,0.00,Rainwise IP-100,2013-01-31 14:00:00,
2013-01-31 08:04:00,30.0,23.0,30.05,SW,225,6.0,12.0,71,0.00,,,0.00,Rainwise IP-100,2013-01-31 14:04:00,
2013-01-31 08:09:00,30.0,23.0,30.05,WSW,247,7.0,10.0,70,0.00,,,0.00,Rainwise IP-100,2013-01-31 14:09:00,
2013-01-31 08:15:00,30.0,23.0,30.05,South,180,5.0,16.0,70,0.00,,,0.00,Rainwise IP-100,2013-01-31 14:15:00,
2013-01-31 08:20:00,30.0,23.0,30.06,SSW,202,4.0,9.0,70,0.00,,,0.00,Rainwise IP-100,2013-01-31 14:20:00,
2013-01-31 08:25:00,30.0,23.0,30.06,SW,225,6.0,11.0,69,0.00,,,0.00,Rainwise IP-100,2013-01-31 14:25:00,
2013-01-31 08:30:00,31.0,23.0,30.07,SSW,202,2.0,12.0,69,0.00,,,0.00,Rainwise IP-100,2013-01-31 14:30:00,
2013-01-31 08:35:00,31.0,23.0,30.07,SW,225,1.0,10.0,68,0.00,,,0.00,Rainwise IP-100,2013-01-31 14:35:00,
2013-01-31 08:40:00,30.0,21.0,30.07,SW,225,8.0,13.0,67,0.00,,,0.00,Rainwise IP-100,2013-01-31 14:40:00,
2013-01-31 08:45:00,31.0,21.0,30.07,SSW,202,11.0,12.0,67,0.00,,,0.00,Rainwise IP-100,2013-01-31 14:45:00,
2013-01-31 08:50:00,31.0,23.0,30.08,West,270,5.0,12.0,68,0.00,,,0.00,Rainwise IP-100,2013-01-31 14:50:00,
2013-01-31 08:55:00,31.0,21.0,30.08,SSW,202,1.0,13.0,67,0.00,,,0.00,Rainwise IP-100,2013-01-31 14:55:00,
2013-01-31 09:01:00,31.0,21.0,30.08,WSW,247,4.0,12.0,66,0.00,,,0.00,Rainwise IP-100,2013-01-31 15:01:00,
2013-01-31 09:06:00,31.0,21.0,30.08,SSW,202,11.0,12.0,65,0.00,,,0.00,Rainwise IP-100,2013-01-31 15:06:00,
2013-01-31 09:11:00,32.0,23.0,30.08,SW,225,1.0,16.0,65,0.00,,,0.00,Rainwise IP-100,2013-01-31 15:11:00,
2013-01-31 09:16:00,32.0,23.0,30.08,SSW,202,6.0,9.0,65,0.00,,,0.00,Rainwise IP-100,2013-01-31 15:16:00,
2013-01-31 09:21:00,32.0,23.0,30.07,SSW,202,11.0,17.0,65,0.00,,,0.00,Rainwise IP-100,2013-01-31 15:21:00,
2013-01-31 09:26:00,31.0,21.0,30.07,SSW,202,12.0,18.0,65,0.00,,,0.00,Rainwise IP-100,2013-01-31 15:26:00,
2013-01-31 09:31:00,32.0,23.0,30.09,SW,225,9.0,17.0,65,0.00,,,0.00,Rainwise IP-100,2013-01-31 15:31:00,
2013-01-31 09:37:00,32.0,23.0,30.08,SSW,202,10.0,13.0,65,0.00,,,0.00,Rainwise IP-100,2013-01-31 15:37:00,
2013-01-31 09:42:00,32.0,23.0,30.08,WSW,247,5.0,15.0,65,0.00,,,0.00,Rainwise IP-100,2013-01-31 15:42:00,
2013-01-31 09:47:00,32.0,23.0,30.10,West,270,9.0,10.0,65,0.00,,,0.00,Rainwise IP-100,2013-01-31 15:47:00,
2013-01-31 09:52:00,33.0,23.0,30.10,SW,225,6.0,19.0,65,0.00,,,0.00,Rainwise IP-100,2013-01-31 15:52:00,
2013-01-31 09:57:00,33.0,23.0,30.10,WSW,247,6.0,14.0,64,0.00,,,0.00,Rainwise IP-100,2013-01-31 15:57:00,
2013-01-31 10:02:00,32.0,23.0,30.10,SW,225,10.0,17.0,64,0.00,,,0.00,Rainwise IP-100,2013-01-31 16:02:00,
2013-01-31 10:07:00,33.0,23.0,30.10,WNW,292,4.0,13.0,64,0.00,,,0.00,Rainwise IP-100,2013-01-31 16:07:00,
2013-01-31 10:12:00,34.0,24.0,30.10,SW,225,3.0,13.0,63,0.00,,,0.00,Rainwise IP-100,2013-01-31 16:12:00,
2013-01-31 10:18:00,34.0,23.0,30.10,WNW,292,16.0,16.0,62,0.00,,,0.00,Rainwise IP-100,2013-01-31 16:18:00,
2013-01-31 10:23:00,34.0,23.0,30.10,SSW,202,10.0,17.0,62,0.00,,,0.00,Rainwise IP-100,2013-01-31 16:23:00,
2013-01-31 10:28:00,34.0,23.0,30.08,SW,225,8.0,15.0,59,0.00,,,0.00,Rainwise IP-100,2013-01-31 16:28:00,
2013-01-31 10:33:00,35.0,23.0,30.08,SW,225,8.0,12.0,59,0.00,,,0.00,Rainwise IP-100,2013-01-31 16:33:00,
2013-01-31 10:38:00,35.0,23.0,30.10,WSW,247,7.0,13.0,62,0.00,,,0.00,Rainwise IP-100,2013-01-31 16:38:00,
2013-01-31 10:43:00,34.0,23.0,30.10,South,180,6.0,12.0,59,0.00,,,0.00,Rainwise IP-100,2013-01-31 16:43:00,
2013-01-31 10:48:00,35.0,23.0,30.09,WSW,247,6.0,10.0,59,0.00,,,0.00,Rainwise IP-100,2013-01-31 16:48:00,
2013-01-31 10:53:00,36.0,24.0,30.09,SW,225,6.0,11.0,60,0.00,,,0.00,Rainwise IP-100,2013-01-31 16:53:00,
2013-01-31 10:59:00,35.0,23.0,30.09,SSW,202,7.0,19.0,61,0.00,,,0.00,Rainwise IP-100,2013-01-31 16:59:00,
2013-01-31 11:04:00,36.0,24.0,30.09,NW,315,6.0,14.0,61,0.00,,,0.00,Rainwise IP-100,2013-01-31 17:04:00,
2013-01-31 11:09:00,36.0,23.0,30.09,SW,225,11.0,12.0,59,0.00,,,0.00,Rainwise IP-100,2013-01-31 17:09:00,
2013-01-31 11:14:00,35.0,23.0,30.09,SW,225,1.0,13.0,59,0.00,,,0.00,Rainwise IP-100,2013-01-31 17:14:00,
2013-01-31 11:19:00,36.0,23.0,30.09,SW,225,7.0,11.0,58,0.00,,,0.00,Rainwise IP-100,2013-01-31 17:19:00,
2013-01-31 11:24:00,36.0,24.0,30.09,WSW,247,6.0,14.0,60,0.00,,,0.00,Rainwise IP-100,2013-01-31 17:24:00,
2013-01-31 11:29:00,37.0,24.0,30.08,SW,225,3.0,10.0,60,0.00,,,0.00,Rainwise IP-100,2013-01-31 17:29:00,
2013-01-31 11:34:00,38.0,24.0,30.08,WSW,247,12.0,12.0,57,0.00,,,0.00,Rainwise IP-100,2013-01-31 17:34:00,
2013-01-31 11:40:00,37.0,24.0,30.08,SSW,202,5.0,15.0,57,0.00,,,0.00,Rainwise IP-100,2013-01-31 17:40:00,
2013-01-31 11:45:00,37.0,24.0,30.08,South,180,1.0,10.0,57,0.00,,,0.00,Rainwise IP-100,2013-01-31 17:45:00,
2013-01-31 11:50:00,37.0,24.0,30.07,NW,315,6.0,9.0,57,0.00,,,0.00,Rainwise IP-100,2013-01-31 17:50:00,
2013-01-31 11:55:00,37.0,24.0,30.07,WSW,247,7.0,16.0,57,0.00,,,0.00,Rainwise IP-100,2013-01-31 17:55:00,
2013-01-31 12:00:00,38.0,26.0,30.07,West,270,6.0,16.0,59,0.00,,,0.00,Rainwise IP-100,2013-01-31 18:00:00,
2013-01-31 12:05:00,37.0,24.0,30.07,South,180,6.0,15.0,59,0.00,,,0.00,Rainwise IP-100,2013-01-31 18:05:00,
2013-01-31 12:10:00,38.0,24.0,30.06,WSW,247,12.0,12.0,55,0.00,,,0.00,Rainwise IP-100,2013-01-31 18:10:00,
2013-01-31 12:16:00,39.0,26.0,30.06,SSW,202,7.0,17.0,57,0.00,,,0.00,Rainwise IP-100,2013-01-31 18:16:00,
2013-01-31 12:21:00,37.0,24.0,30.05,SW,225,10.0,14.0,58,0.00,,,0.00,Rainwise IP-100,2013-01-31 18:21:00,
2013-01-31 12:26:00,38.0,24.0,30.05,WNW,292,1.0,14.0,58,0.00,,,0.00,Rainwise IP-100,2013-01-31 18:26:00,
2013-01-31 12:31:00,39.0,24.0,30.04,SW,225,5.0,13.0,54,0.00,,,0.00,Rainwise IP-100,2013-01-31 18:31:00,
2013-01-31 12:36:00,38.0,24.0,30.04,WNW,292,6.0,15.0,55,0.00,,,0.00,Rainwise IP-100,2013-01-31 18:36:00,
2013-01-31 12:41:00,40.0,26.0,30.04,SW,225,5.0,12.0,56,0.00,,,0.00,Rainwise IP-100,2013-01-31 18:41:00,
2013-01-31 12:46:00,40.0,26.0,30.04,SW,225,7.0,11.0,54,0.00,,,0.00,Rainwise IP-100,2013-01-31 18:46:00,
2013-01-31 12:51:00,40.0,26.0,30.03,West,270,7.0,18.0,54,0.00,,,0.00,Rainwise IP-100,2013-01-31 18:51:00,
2013-01-31 12:57:00,39.0,24.0,30.03,West,270,10.0,14.0,54,0.00,,,0.00,Rainwise IP-100,2013-01-31 18:57:00,
2013-01-31 13:02:00,39.0,24.0,30.04,WSW,247,3.0,14.0,56,0.00,,,0.00,Rainwise IP-100,2013-01-31 19:02:00,
2013-01-31 13:07:00,39.0,24.0,30.03,West,270,9.0,17.0,53,0.00,,,0.00,Rainwise IP-100,2013-01-31 19:07:00,
2013-01-31 13:12:00,39.0,24.0,30.03,SSE,157,3.0,13.0,54,0.00,,,0.00,Rainwise IP-100,2013-01-31 19:12:00,
2013-01-31 13:17:00,41.0,26.0,30.02,SSW,202,7.0,15.0,52,0.00,,,0.00,Rainwise IP-100,2013-01-31 19:17:00,
2013-01-31 13:22:00,41.0,26.0,30.02,SE,135,5.0,13.0,54,0.00,,,0.00,Rainwise IP-100,2013-01-31 19:22:00,
2013-01-31 13:27:00,40.0,24.0,30.02,WSW,247,7.0,13.0,53,0.00,,,0.00,Rainwise IP-100,2013-01-31 19:27:00,
2013-01-31 13:32:00,40.0,24.0,30.02,West,270,6.0,13.0,52,0.00,,,0.00,Rainwise IP-100,2013-01-31 19:32:00,
2013-01-31 13:37:00,40.0,24.0,30.02,WSW,247,6.0,14.0,51,0.00,,,0.00,Rainwise IP-100,2013-01-31 19:37:00,
2013-01-31 13:43:00,40.0,24.0,30.02,South,180,4.0,20.0,53,0.00,,,0.00,Rainwise IP-100,2013-01-31 19:43:00,
2013-01-31 13:48:00,41.0,26.0,30.01,West,270,6.0,10.0,53,0.00,,,0.00,Rainwise IP-100,2013-01-31 19:48:00,
2013-01-31 13:53:00,41.0,26.0,30.01,West,270,6.0,13.0,52,0.00,,,0.00,Rainwise IP-100,2013-01-31 19:53:00,
2013-01-31 13:58:00,42.0,26.0,30.00,WSW,247,2.0,15.0,52,0.00,,,0.00,Rainwise IP-100,2013-01-31 19:58:00,
2013-01-31 14:03:00,41.0,24.0,30.00,WSW,247,7.0,16.0,51,0.00,,,0.00,Rainwise IP-100,2013-01-31 20:03:00,
2013-01-31 14:08:00,41.0,26.0,30.01,SW,225,5.0,13.0,52,0.00,,,0.00,Rainwise IP-100,2013-01-31 20:08:00,
2013-01-31 14:13:00,40.0,24.0,30.01,NW,315,5.0,12.0,52,0.00,,,0.00,Rainwise IP-100,2013-01-31 20:13:00,
2013-01-31 14:18:00,41.0,26.0,30.01,WSW,247,10.0,12.0,52,0.00,,,0.00,Rainwise IP-100,2013-01-31 20:18:00,
2013-01-31 14:23:00,40.0,24.0,30.01,SW,225,8.0,16.0,51,0.00,,,0.00,Rainwise IP-100,2013-01-31 20:23:00,
2013-01-31 14:28:00,41.0,24.0,30.00,SSW,202,6.0,15.0,51,0.00,,,0.00,Rainwise IP-100,2013-01-31 20:28:00,
2013-01-31 14:34:00,41.0,24.0,30.00,West,270,4.0,12.0,51,0.00,,,0.00,Rainwise IP-100,2013-01-31 20:34:00,
2013-01-31 14:39:00,41.0,24.0,29.99,SW,225,7.0,7.0,51,0.00,,,0.00,Rainwise IP-100,2013-01-31 20:39:00,
2013-01-31 14:44:00,40.0,24.0,29.99,SSW,202,13.0,13.0,50,0.00,,,0.00,Rainwise IP-100,2013-01-31 20:44:00,
2013-01-31 14:49:00,41.0,24.0,30.00,SW,225,4.0,13.0,51,0.00,,,0.00,Rainwise IP-100,2013-01-31 20:49:00,
2013-01-31 14:54:00,41.0,24.0,30.00,SW,225,7.0,10.0,50,0.00,,,0.00,Rainwise IP-100,2013-01-31 20:54:00,
2013-01-31 14:59:00,41.0,24.0,30.01,WSW,247,12.0,15.0,50,0.00,,,0.00,Rainwise IP-100,2013-01-31 20:59:00,
2013-01-31 15:04:00,40.0,24.0,30.01,SW,225,1.0,18.0,52,0.00,,,0.00,Rainwise IP-100,2013-01-31 21:04:00,
2013-01-31 15:09:00,40.0,24.0,30.00,SW,225,6.0,9.0,52,0.00,,,0.00,Rainwise IP-100,2013-01-31 21:09:00,
2013-01-31 15:15:00,40.0,24.0,30.00,West,270,10.0,16.0,53,0.00,,,0.00,Rainwise IP-100,2013-01-31 21:15:00,
2013-01-31 15:20:00,40.0,26.0,30.01,SW,225,7.0,11.0,54,0.00,,,0.00,Rainwise IP-100,2013-01-31 21:20:00,
2013-01-31 15:25:00,41.0,26.0,30.01,South,180,3.0,9.0,53,0.00,,,0.00,Rainwise IP-100,2013-01-31 21:25:00,
2013-01-31 15:30:00,40.0,24.0,30.00,South,180,6.0,13.0,53,0.00,,,0.00,Rainwise IP-100,2013-01-31 21:30:00,
2013-01-31 15:35:00,41.0,26.0,30.00,South,180,3.0,16.0,54,0.00,,,0.00,Rainwise IP-100,2013-01-31 21:35:00,
2013-01-31 15:40:00,41.0,26.0,30.01,WSW,247,9.0,11.0,54,0.00,,,0.00,Rainwise IP-100,2013-01-31 21:40:00,
2013-01-31 15:45:00,40.0,24.0,30.01,South,180,12.0,16.0,53,0.00,,,0.00,Rainwise IP-100,2013-01-31 21:45:00,
2013-01-31 15:51:00,40.0,24.0,30.00,SSW,202,8.0,18.0,53,0.00,,,0.00,Rainwise IP-100,2013-01-31 21:51:00,
2013-01-31 15:56:00,40.0,24.0,30.00,South,180,7.0,13.0,52,0.00,,,0.00,Rainwise IP-100,2013-01-31 21:56:00,
2013-01-31 16:01:00,40.0,24.0,30.00,WSW,247,7.0,15.0,53,0.00,,,0.00,Rainwise IP-100,2013-01-31 22:01:00,
2013-01-31 16:06:00,40.0,26.0,30.00,South,180,0.0,13.0,54,0.00,,,0.00,Rainwise IP-100,2013-01-31 22:06:00,
2013-01-31 16:11:00,40.0,24.0,30.00,SW,225,6.0,10.0,53,0.00,,,0.00,Rainwise IP-100,2013-01-31 22:11:00,
2013-01-31 16:16:00,40.0,26.0,30.00,SW,225,8.0,16.0,54,0.00,,,0.00,Rainwise IP-100,2013-01-31 22:16:00,
2013-01-31 16:21:00,40.0,26.0,30.00,SW,225,7.0,12.0,54,0.00,,,0.00,Rainwise IP-100,2013-01-31 22:21:00,
2013-01-31 16:26:00,41.0,26.0,30.00,West,270,7.0,13.0,54,0.00,,,0.00,Rainwise IP-100,2013-01-31 22:26:00,
2013-01-31 16:32:00,41.0,26.0,30.01,WSW,247,6.0,12.0,54,0.00,,,0.00,Rainwise IP-100,2013-01-31 22:32:00,
2013-01-31 16:37:00,41.0,26.0,30.01,SW,225,7.0,13.0,54,0.00,,,0.00,Rainwise IP-100,2013-01-31 22:37:00,
2013-01-31 16:42:00,41.0,26.0,30.01,West,270,4.0,12.0,54,0.00,,,0.00,Rainwise IP-100,2013-01-31 22:42:00,
2013-01-31 16:47:00,41.0,26.0,30.01,SW,225,3.0,9.0,55,0.00,,,0.00,Rainwise IP-100,2013-01-31 22:47:00,
2013-01-31 16:52:00,41.0,26.0,30.01,SW,225,5.0,19.0,55,0.00,,,0.00,Rainwise IP-100,2013-01-31 22:52:00,
2013-01-31 16:57:00,40.0,26.0,30.01,SSW,202,7.0,17.0,55,0.00,,,0.00,Rainwise IP-100,2013-01-31 22:57:00,
2013-01-31 17:02:00,40.0,26.0,30.00,SSW,202,6.0,16.0,57,0.00,,,0.00,Rainwise IP-100,2013-01-31 23:02:00,
2013-01-31 17:08:00,41.0,28.0,30.01,South,180,7.0,15.0,57,0.00,,,0.00,Rainwise IP-100,2013-01-31 23:08:00,
2013-01-31 17:13:00,40.0,28.0,30.01,West,270,6.0,14.0,58,0.00,,,0.00,Rainwise IP-100,2013-01-31 23:13:00,
2013-01-31 17:18:00,40.0,28.0,30.01,WSW,247,8.0,12.0,59,0.00,,,0.00,Rainwise IP-100,2013-01-31 23:18:00,
2013-01-31 17:23:00,40.0,28.0,30.01,WSW,247,6.0,10.0,59,0.00,,,0.00,Rainwise IP-100,2013-01-31 23:23:00,
2013-01-31 17:28:00,41.0,29.0,30.01,South,180,1.0,15.0,60,0.00,,,0.00,Rainwise IP-100,2013-01-31 23:28:00,
2013-01-31 17:33:00,40.0,28.0,30.01,SSE,157,3.0,10.0,61,0.00,,,0.00,Rainwise IP-100,2013-01-31 23:33:00,
2013-01-31 17:38:00,40.0,28.0,30.00,SW,225,5.0,12.0,61,0.00,,,0.00,Rainwise IP-100,2013-01-31 23:38:00,
2013-01-31 17:44:00,40.0,29.0,30.00,WSW,247,6.0,8.0,62,0.00,,,0.00,Rainwise IP-100,2013-01-31 23:44:00,
2013-01-31 17:49:00,40.0,29.0,30.01,SSE,157,0.0,12.0,63,0.00,,,0.00,Rainwise IP-100,2013-01-31 23:49:00,
2013-01-31 17:54:00,40.0,29.0,30.01,WNW,292,5.0,7.0,64,0.00,,,0.00,Rainwise IP-100,2013-01-31 23:54:00,
2013-01-31 17:59:00,40.0,29.0,30.01,SW,225,8.0,17.0,63,0.00,,,0.00,Rainwise IP-100,2013-01-31 23:59:00,
2013-01-31 18:04:00,40.0,29.0,30.01,WSW,247,6.0,17.0,64,0.00,,,0.00,Rainwise IP-100,2013-02-01 00:04:00,
2013-01-31 18:09:00,40.0,31.0,30.01,NW,315,11.0,17.0,66,0.00,,,0.00,Rainwise IP-100,2013-02-01 00:09:00,
2013-01-31 18:14:00,39.0,31.0,30.01,West,270,9.0,20.0,71,0.00,,,0.00,Rainwise IP-100,2013-02-01 00:14:00,
2013-01-31 18:19:00,39.0,32.0,30.03,SW,225,2.0,16.0,76,0.00,,,0.00,Rainwise IP-100,2013-02-01 00:19:00,
2013-01-31 18:25:00,38.0,32.0,30.03,South,180,3.0,17.0,79,0.00,,,0.00,Rainwise IP-100,2013-02-01 00:25:00,
2013-01-31 18:30:00,37.0,32.0,30.05,North,360,7.0,19.0,84,0.00,,,0.00,Rainwise IP-100,2013-02-01 00:30:00,
2013-01-31 18:35:00,36.0,32.0,30.05,WSW,247,7.0,10.0,86,0.00,,,0.00,Rainwise IP-100,2013-02-01 00:35:00,
2013-01-31 18:40:00,35.0,32.0,30.06,NNW,337,7.0,15.0,90,0.00,,,0.00,Rainwise IP-100,2013-02-01 00:40:00,
2013-01-31 18:45:00,35.0,33.0,30.06,WNW,292,2.0,17.0,93,0.06,,,0.01,Rainwise IP-100,2013-02-01 00:45:00,
2013-01-31 18:50:00,34.0,33.0,30.07,WSW,247,6.0,18.0,95,0.06,,,0.01,Rainwise IP-100,2013-02-01 00:50:00,
2013-01-31 18:55:00,33.0,32.0,30.07,West,270,7.0,19.0,95,0.00,,,0.01,Rainwise IP-100,2013-02-01 00:55:00,
2013-01-31 19:00:00,33.0,32.0,30.08,SW,225,3.0,10.0,95,0.00,,,0.01,Rainwise IP-100,2013-02-01 01:00:00,
2013-01-31 19:06:00,33.0,32.0,30.08,SSW,202,4.0,17.0,95,0.06,,,0.02,Rainwise IP-100,2013-02-01 01:06:00,
2013-01-31 19:11:00,33.0,32.0,30.08,SW,225,1.0,15.0,95,0.06,,,0.02,Rainwise IP-100,2013-02-01 01:11:00,
2013-01-31 19:16:00,32.0,31.0,30.08,NW,315,8.0,16.0,95,0.00,,,0.02,Rainwise IP-100,2013-02-01 01:16:00,
2013-01-31 19:21:00,32.0,31.0,30.10,NW,315,4.0,16.0,95,0.00,,,0.02,Rainwise IP-100,2013-02-01 01:21:00,
2013-01-31 19:26:00,31.0,29.0,30.10,West,270,7.0,12.0,95,0.00,,,0.02,Rainwise IP-100,2013-02-01 01:26:00,
2013-01-31 19:31:00,31.0,29.0,30.11,NNW,337,0.0,13.0,95,0.00,,,0.02,Rainwise IP-100,2013-02-01 01:31:00,
2013-01-31 19:36:00,31.0,29.0,30.11,SW,225,10.0,15.0,95,0.00,,,0.02,Rainwise IP-100,2013-02-01 01:36:00,
2013-01-31 19:41:00,31.0,29.0,30.12,WNW,292,9.0,13.0,95,0.00,,,0.02,Rainwise IP-100,2013-02-01 01:41:00,
2013-01-31 19:47:00,31.0,29.0,30.12,West,270,7.0,22.0,95,0.00,,,0.02,Rainwise IP-100,2013-02-01 01:47:00,
2013-01-31 19:52:00,31.0,29.0,30.12,WNW,292,4.0,12.0,95,0.00,,,0.02,Rainwise IP-100,2013-02-01 01:52:00,
2013-01-31 19:57:00,31.0,29.0,30.12,South,180,1.0,15.0,95,0.00,,,0.02,Rainwise IP-100,2013-02-01 01:57:00,
2013-01-31 20:02:00,31.0,29.0,30.13,West,270,10.0,10.0,95,0.00,,,0.02,Rainwise IP-100,2013-02-01 02:02:00,
2013-01-31 20:07:00,31.0,29.0,30.13,NW,315,0.0,10.0,95,0.00,,,0.02,Rainwise IP-100,2013-02-01 02:07:00,
2013-01-31 20:12:00,30.0,29.0,30.13,SW,225,6.0,17.0,95,0.00,,,0.02,Rainwise IP-100,2013-02-01 02:12:00,
2013-01-31 20:17:00,30.0,29.0,30.14,West,270,6.0,12.0,95,0.00,,,0.02,Rainwise IP-100,2013-02-01 02:17:00,
2013-01-31 20:23:00,30.0,29.0,30.14,West,270,13.0,13.0,95,0.00,,,0.02,Rainwise IP-100,2013-02-01 02:23:00,
2013-01-31 20:28:00,30.0,29.0,30.14,WNW,292,11.0,22.0,95,0.00,,,0.02,Rainwise IP-100,2013-02-01 02:28:00,
2013-01-31 20:33:00,29.0,28.0,30.14,WSW,247,6.0,14.0,94,0.00,,,0.02,Rainwise IP-100,2013-02-01 02:33:00,
2013-01-31 20:38:00,30.0,29.0,30.15,West,270,4.0,12.0,95,0.00,,,0.02,Rainwise IP-100,2013-02-01 02:38:00,
2013-01-31 20:43:00,29.0,28.0,30.15,WSW,247,2.0,17.0,92,0.00,,,0.02,Rainwise IP-100,2013-02-01 02:43:00,
2013-01-31 20:48:00,29.0,26.0,30.16,North,360,5.0,13.0,90,0.00,,,0.02,Rainwise IP-100,2013-02-01 02:48:00,
2013-01-31 20:53:00,29.0,28.0,30.16,North,360,4.0,9.0,91,0.00,,,0.02,Rainwise IP-100,2013-02-01 02:53:00,
2013-01-31 20:58:00,28.0,26.0,30.17,North,360,3.0,7.0,92,0.00,,,0.02,Rainwise IP-100,2013-02-01 02:58:00,
2013-01-31 21:04:00,28.0,26.0,30.17,North,360,5.0,9.0,92,0.00,,,0.02,Rainwise IP-100,2013-02-01 03:04:00,
2013-01-31 21:09:00,27.0,26.0,30.18,North,360,6.0,9.0,90,0.00,,,0.02,Rainwise IP-100,2013-02-01 03:09:00,
2013-01-31 21:14:00,27.0,26.0,30.18,NE,45,7.0,9.0,91,0.00,,,0.02,Rainwise IP-100,2013-02-01 03:14:00,
2013-01-31 21:19:00,26.0,24.0,30.20,West,270,5.0,23.0,90,0.00,,,0.02,Rainwise IP-100,2013-02-01 03:19:00,
2013-01-31 21:24:00,26.0,24.0,30.20,NW,315,2.0,10.0,91,0.00,,,0.02,Rainwise IP-100,2013-02-01 03:24:00,
2013-01-31 21:29:00,25.0,23.0,30.21,NNW,337,7.0,17.0,89,0.00,,,0.02,Rainwise IP-100,2013-02-01 03:29:00,
2013-01-31 21:34:00,25.0,23.0,30.21,WNW,292,8.0,16.0,86,0.00,,,0.02,Rainwise IP-100,2013-02-01 03:34:00,
2013-01-31 21:40:00,24.0,21.0,30.22,SW,225,4.0,16.0,86,0.00,,,0.02,Rainwise IP-100,2013-02-01 03:40:00,
2013-01-31 21:45:00,24.0,21.0,30.22,West,270,12.0,15.0,83,0.00,,,0.02,Rainwise IP-100,2013-02-01 03:45:00,
2013-01-31 21:50:00,24.0,21.0,30.23,WNW,292,6.0,13.0,85,0.00,,,0.02,Rainwise IP-100,2013-02-01 03:50:00,
2013-01-31 21:55:00,23.0,18.0,30.23,SW,225,3.0,14.0,82,0.00,,,0.02,Rainwise IP-100,2013-02-01 03:55:00,
2013-01-31 22:00:00,23.0,18.0,30.24,NNW,337,5.0,15.0,83,0.00,,,0.02,Rainwise IP-100,2013-02-01 04:00:00,
2013-01-31 22:05:00,23.0,18.0,30.24,WNW,292,4.0,10.0,84,0.00,,,0.02,Rainwise IP-100,2013-02-01 04:05:00,
2013-01-31 22:10:00,23.0,18.0,30.24,WSW,247,7.0,9.0,84,0.00,,,0.02,Rainwise IP-100,2013-02-01 04:10:00,
2013-01-31 22:15:00,23.0,18.0,30.24,NW,315,7.0,12.0,83,0.00,,,0.02,Rainwise IP-100,2013-02-01 04:15:00,
2013-01-31 22:21:00,23.0,18.0,30.25,NW,315,5.0,12.0,82,0.00,,,0.02,Rainwise IP-100,2013-02-01 04:21:00,
2013-01-31 22:26:00,23.0,16.0,30.25,WNW,292,7.0,13.0,79,0.00,,,0.02,Rainwise IP-100,2013-02-01 04:26:00,
2013-01-31 22:31:00,23.0,18.0,30.25,NW,315,3.0,12.0,80,0.00,,,0.02,Rainwise IP-100,2013-02-01 04:31:00,
2013-01-31 22:36:00,22.0,18.0,30.25,WNW,292,5.0,9.0,81,0.00,,,0.02,Rainwise IP-100,2013-02-01 04:36:00,
2013-01-31 22:41:00,22.0,16.0,30.26,West,270,10.0,12.0,78,0.00,,,0.02,Rainwise IP-100,2013-02-01 04:41:00,
2013-01-31 22:46:00,22.0,16.0,30.26,WNW,292,9.0,16.0,78,0.00,,,0.02,Rainwise IP-100,2013-02-01 04:46:00,
2013-01-31 22:51:00,22.0,16.0,30.27,WNW,292,10.0,18.0,77,0.00,,,0.02,Rainwise IP-100,2013-02-01 04:51:00,
2013-01-31 22:56:00,22.0,16.0,30.27,NW,315,1.0,18.0,77,0.00,,,0.02,Rainwise IP-100,2013-02-01 04:56:00,
2013-01-31 23:00:00,22.0,16.0,30.27,WNW,292,7.0,10.0,78,0.00,,,0.02,Rainwise IP-100,2013-02-01 05:00:00,
2013-01-31 23:05:00,22.0,16.0,30.27,NW,315,4.0,10.0,78,0.00,,,0.02,Rainwise IP-100,2013-02-01 05:05:00,
2013-01-31 23:10:00,22.0,16.0,30.29,West,270,6.0,12.0,77,0.00,,,0.02,Rainwise IP-100,2013-02-01 05:10:00,
2013-01-31 23:15:00,21.0,16.0,30.29,NNW,337,0.0,12.0,78,0.00,,,0.02,Rainwise IP-100,2013-02-01 05:15:00,
2013-01-31 23:20:00,21.0,16.0,30.30,NW,315,6.0,10.0,78,0.00,,,0.02,Rainwise IP-100,2013-02-01 05:20:00,
2013-01-31 23:22:00,21.0,16.0,30.30,WSW,247,1.0,9.0,78,0.00,,,0.02,Rainwise IP-100,2013-02-01 05:22:00,
2013-01-31 23:27:00,20.0,14.0,30.30,NNW,337,5.0,13.0,76,0.00,,,0.02,Rainwise IP-100,2013-02-01 05:27:00,
2013-01-31 23:32:00,20.0,14.0,30.31,NNW,337,2.0,13.0,77,0.00,,,0.02,Rainwise IP-100,2013-02-01 05:32:00,
2013-01-31 23:38:00,20.0,14.0,30.32,SSW,202,4.0,14.0,76,0.00,,,0.02,Rainwise IP-100,2013-02-01 05:38:00,
2013-01-31 23:43:00,20.0,14.0,30.32,WNW,292,4.0,9.0,75,0.00,,,0.02,Rainwise IP-100,2013-02-01 05:43:00,
2013-01-31 23:48:00,20.0,14.0,30.32,West,270,2.0,8.0,76,0.00,,,0.02,Rainwise IP-100,2013-02-01 05:48:00,
2013-01-31 23:53:00,19.0,14.0,30.32,NNW,337,6.0,15.0,75,0.00,,,0.02,Rainwise IP-100,2013-02-01 05:53:00,
2013-01-31 23:55:00,19.0,14.0,30.32,West,270,7.0,15.0,73,0.00,,,0.02,Rainwise IP-100,2013-02-01 05:55:00,